JUPITER 3 (ECHOSTAR 24)

Last updated on Tue Sep 16 2025 00:02:51 GMT+0000 (Coordinated Universal Time)

1 57479U 23108A 25257.28248659 -.00000162 00000+0 00000+0 0 9999 2 57479 0.0177 125.6008 0001343 46.3999 188.0068 1.00272058 7881
UTC large
Height (km)
Speed (km/s)
/
Latitude / Longitude
Inclination (degrees)
Orbital Period (minutes)
Azimuth
Elevation
Range (km)
Doppler Factor

Next 0 passes for location: London (51.5072 / 0.1276)

Sorry there are no passes over London.